Meath Environmental Platform

Observations for Trim Market St

Time AQI Temp °C Hum % Pres Pa CO μg/m³ H₂S μg/m³ NO μg/m³ NO₂ μg/m³ O₃ μg/m³ SO₂ μg/m³ PM1 μg/m³ PM2.5 μg/m³ PM10 μg/m³
Saturday 15 August 2026
19:45 3 22.1 43 63,908 0 3.06 1.49 18.33 64.17 0 0 2.22 2.44
19:41 3 22.2 42 64,356 0 1.18 1.5 13.13 68.82 0 0 2.25 2.47
19:36 3 22.3 42 64,590 0 0 1.52 10.32 70.38 0 0 2.27 2.5
19:35 3 22.4 42 64,586 0 0.41 1.51 11.49 72.27 0 0 2.8 3.08
19:32 3 22.5 42 64,699 0 0.48 1.52 9.34 79.21 0 0 2.29 2.52
19:29 3 22.5 41 64,782 0 0.48 1.53 12.09 70.47 0 0 2.83 3.11
19:23 3 22.6 41 64,954 0 0 1.56 8.67 78.61 0 0.71 2.86 3.14
19:22 3 22.7 41 64,964 0 0 1.54 9.46 72.52 0 0 2.86 3.14
19:21 3 22.7 40 65,001 0 0 1.53 9.48 74.49 0 0 3.39 3.52
19:20 3 22.7 40 64,966 0 0 1.53 9.24 73.25 0 0 2.86 3.15
19:19 3 22.7 40 64,975 0 0 1.53 8.75 77.11 0 0.71 4.44 4.89
19:18 3 22.8 40 64,991 0 0 1.53 11.29 72.86 0 1.43 4.45 4.89
19:17 3 22.8 40 65,011 0 0 1.54 34.96 52.36 0 2.85 4.98 5.12
19:16 3 22.9 40 65,042 0 0 1.55 8.68 76.88 0 1.43 3.93 4.32
19:15 3 22.9 40 65,072 0 0.71 1.55 8.68 78.11 0 0.71 3.4 3.74
19:14 3 23 40 65,060 0 1.05 1.54 8.65 84.85 0 2.14 5.52 5.92
19:13 3 23.1 40 65,072 0 0.97 1.54 8.64 82.84 0 2.14 4.46 4.91
19:12 3 23.1 40 65,082 0 0.31 1.52 8.69 81.62 0 0.71 3.41 3.75
19:11 3 23.1 40 65,093 0 0.39 1.52 8.67 80.57 0 1.43 3.41 3.75
19:10 3 23.1 40 65,137 0 0 1.51 8.63 79.79 0 1.43 3.41 3.5